Location: Cold Norton
(51.6667°N, 0.6667°E)
Time: 06:28:38
(UTC+00:00)

Cosmos 1943 Rocket - Pass Details

Date: 18 November 2025
Orbit: 812 x 841 km, 71.0° (Epoch: 10 December)

Event Time Altitude Azimuth Distance (km) Brightness Sun altitude
Rises 17:22:20 0° 194° (SSW) 3,372 5.8 -12.1°
Reaches altitude 10° 17:24:48 10° 191° (S) 2,438 5.0 -12.4°
Maximum altitude 17:30:16 58° 113° (ESE) 968 2.3 -13.2°
Enters shadow 17:35:19 12° 37° (NE) 2,283 4.0 -14.0°
